Location: Caltech
(34.1382°N, 118.1253°W)
Time: 15:13:03
(UTC-07:00)

Meteor 2-4 Rocket - Visible Passes

Search period start: 28 September 2016 00:00
Search period end: 08 October 2016 00:00
Orbit: 800 x 908 km, 81.2° (Epoch: 27 September)

Date Brightness Start Highest point End Pass type
(mag) Time Alt. Az. Time Alt. Az. Time Alt. Az.
28 Sep 5.4 03:50:00 25° ESE 03:51:49 30° E 03:56:50 10° NNE visible
28 Sep 4.5 05:32:10 23° WSW 05:34:40 31° WNW 05:39:51 10° NNW visible
29 Sep 5.5 03:40:13 27° E 03:40:51 28° E 03:45:46 10° NNE visible
29 Sep 4.4 05:22:23 30° W 05:23:38 33° WNW 05:28:56 10° NNW visible
30 Sep 5.6 03:30:18 26° E 03:30:18 26° E 03:34:40 10° NE visible
30 Sep 4.3 05:12:27 35° W 05:12:36 35° WNW 05:18:00 10° N visible
01 Oct 5.9 03:20:16 22° ENE 03:20:16 22° ENE 03:23:34 10° NE visible
01 Oct 4.4 05:02:24 36° WNW 05:02:24 36° WNW 05:07:05 10° N visible
02 Oct 6.1 03:10:09 19° ENE 03:10:09 19° ENE 03:12:26 10° NE visible
02 Oct 4.7 04:52:17 33° NW 04:52:17 33° NW 04:56:09 10° N visible
03 Oct 6.4 02:59:56 15° NE 02:59:56 15° NE 03:01:19 10° NE visible
03 Oct 5.0 04:42:04 29° NNW 04:42:04 29° NNW 04:45:12 10° N visible
04 Oct 6.6 02:49:40 12° NE 02:49:40 12° NE 02:50:11 10° NE visible
04 Oct 5.3 04:31:48 24° NNW 04:31:48 24° NNW 04:34:15 10° N visible
05 Oct 5.6 04:21:28 20° N 04:21:28 20° N 04:23:18 10° N visible
06 Oct 5.9 04:11:05 17° N 04:11:05 17° N 04:12:20 10° N visible
07 Oct 6.1 04:00:40 14° N 04:00:40 14° N 04:01:23 10° N visible
